Location: Larkspur
(54.4391°N, 113.7691°W)
Time: 22:50:35
(UTC+00:00)

METEOR M2 - Pass Details

Date: 06 December 2023
Orbit: 819 x 826 km, 98.4° (Epoch: 04 March)

Event Time Altitude Azimuth Distance (km) Brightness Sun altitude
Rises 13:02:05 0° 19° (NNE) 3,375 ? -21.5°
Reaches altitude 10° 13:04:35 10° 26° (NNE) 2,436 ? -21.2°
Maximum altitude 13:09:42 43° 97° (E) 1,150 ? -20.5°
Drops below altitude 10° 13:14:47 10° 169° (SSE) 2,415 ? -19.7°
Sets 13:17:14 0° 176° (S) 3,342 ? -19.4°
